Location: *
(2.5500°S, 65.9667°W)
Time: 10:51:56
(UTC+00:00)

Intelsat 5-3 Rocket - Pass Details

Date: 26 October 2021
Orbit: 283 x 6001 km, 23.5° (Epoch: 28 November)

Event Time Altitude Azimuth Distance (km) Brightness Sun altitude
Rises 22:59:32 0° 303° (WNW) 2,354 6.3 -12.0°
Reaches altitude 10° 23:01:55 10° 311° (NW) 1,230 4.6 -12.6°
Maximum altitude 23:04:14 39° 24° (NNE) 432 1.5 -13.2°
Enters shadow 23:04:44 33° 61° (ENE) 490 1.6 -13.3°
